Flag for Germany Weather past 2 weeks in Idar-Oberstein, Rhineland-Palatinate, Germany

37 °F

Passing clouds.

Feels Like: 27 °F
Forecast: 48 / 50 °F
Wind: 18 mph from Southwest

Location: Hahn

Current Time: Nov 29, 2015 at 1:21:59 AM

Latest Report: Nov 29, 2015 at 12:50 AM

Visibility: N/A

Pressure: 29.95 "Hg

Humidity: 87%

Dew point: 34 °F

Location of Idar-ObersteinLocation

Historic Weather in Idar-Oberstein — Graph


Idar-Oberstein temperature yesterday

Maximum temperature yesterday: 37 °F (at 11:50 AM)
Minimum temperature yesterday: 28 °F (at 12:20 AM)
Average temperature yesterday: 35 °F

Past Weeks' High & Low Weather Summary

High55 °F (Nov 17, 9:20 PM)100% (Nov 15, 3:20 AM)30.36 "Hg (Nov 15, 3:20 AM)
Low25 °F (Nov 24, 6:20 AM)70% (Nov 28, 2:20 PM)29.36 "Hg (Nov 21, 12:50 PM)
Average39 °F92%29.92 "Hg
* Reported Nov 13 11:20 PM — Nov 28 11:50 PM, Idar-Oberstein, Weather by CustomWeather, © 2015

Note: Actual official high and low records may vary slightly from our data, if they occured in-between our weather recording intervals... More about our weather records


Idar-Oberstein weather history for previous 24 hours

Time TempWeatherWind HumidityBarometerVisibility
11:50 PM
Sat, Nov 28
37 °FPassing clouds.20 mph81%29.95 "HgN/A
10:50 PM36 °FPassing clouds.20 mph87%29.98 "HgN/A
9:50 PM37 °FPassing clouds.16 mph87%30.01 "HgN/A
9:20 PM37 °FPassing clouds.15 mph81%30.01 "HgN/A
8:50 PM37 °FPassing clouds.16 mph81%30.01 "HgN/A
7:50 PM36 °FPassing clouds.14 mph81%30.01 "HgN/A
7:20 PM36 °FPassing clouds.12 mph81%30.01 "HgN/A
6:50 PM36 °FPassing clouds.12 mph81%30.04 "HgN/A
6:20 PM34 °FClear.9 mph87%30.04 "Hg10 mi
5:50 PM34 °FClear.12 mph81%30.01 "Hg10 mi
5:20 PM34 °FClear.10 mph81%30.01 "Hg10 mi
4:50 PM36 °FPassing clouds.13 mph81%30.01 "HgN/A
4:20 PM36 °FPassing clouds.12 mph81%30.01 "HgN/A
3:50 PM37 °FPassing clouds.12 mph70%30.01 "HgN/A
3:20 PM37 °FPassing clouds.13 mph75%30.01 "HgN/A
2:50 PM37 °FPassing clouds.15 mph75%29.98 "HgN/A
2:20 PM37 °FScattered clouds.18 mph70%29.98 "HgN/A
1:50 PM37 °FScattered clouds.15 mph75%29.98 "HgN/A
1:20 PM37 °FScattered clouds.15 mph75%29.98 "HgN/A
12:50 PM37 °FScattered clouds.13 mph81%29.95 "HgN/A
12:20 PM37 °FScattered clouds.14 mph81%29.95 "HgN/A
11:50 AM37 °FScattered clouds.17 mph87%29.95 "HgN/A
10:50 AM36 °FPartly sunny.15 mph100%29.92 "HgN/A
10:20 AM36 °FPartly sunny.15 mph100%29.89 "Hg4 mi
9:50 AM36 °FPartly sunny.13 mph100%29.89 "Hg4 mi
9:20 AM34 °FLight rain. Partly sunny.13 mph100%29.86 "Hg2 mi
9:00 AM34 °FPartly sunny.12 mph100%29.86 "Hg4 mi
8:50 AM34 °FFog.10 mph100%29.83 "Hg1 mi
8:20 AM34 °FFog.14 mph100%29.83 "Hg1 mi
7:50 AM34 °FFog.15 mph100%29.80 "Hg0 mi
7:20 AM34 °FLight rain. Passing clouds.17 mph100%29.80 "Hg2 mi
6:50 AM34 °FLight snow. Passing clouds.16 mph93%29.77 "Hg3 mi
6:20 AM34 °FLight rain. Passing clouds.13 mph93%29.77 "Hg3 mi
5:50 AM32 °FLight rain. Passing clouds.14 mph100%29.77 "Hg4 mi
5:20 AM32 °FLight rain. Passing clouds.13 mph100%29.77 "Hg4 mi
4:50 AM32 °FLight rain. Passing clouds.9 mph100%29.77 "Hg4 mi
4:20 AM32 °FLight rain. Passing clouds.10 mph100%29.74 "Hg5 mi
3:50 AM32 °FPassing clouds.13 mph100%29.77 "HgN/A
3:20 AM32 °FPassing clouds.10 mph93%29.77 "HgN/A
2:50 AM32 °FPassing clouds.13 mph93%29.80 "HgN/A
2:20 AM32 °FPassing clouds.13 mph93%29.80 "HgN/A
1:50 AM32 °FPassing clouds.10 mph93%29.83 "HgN/A
Weather by CustomWeather, © 2015

See weather overviewHow to use our weather pages